Tracking 17142 objects as of 28-May-2015
HD Live streaming from Space Station

COSMOS 2278

Track COSMOS 2278 now!
10-day predictions
COSMOS 2278 is classified as:


NORAD ID: 23087
Int'l Code: 1994-023A
Perigee: 846.2 km
Apogee: 861.7 km
Inclination: 71.1 °
Period: 101.9 minutes
Semi major axis: 7224 km
RCS: 13.2242 m2 (large)
Launch date: April 23, 1994
Source: Commonwealth of Independent States (former USSR) (CIS)
Your satellite tracking list
Your tracking list is empty





NASA's NSSDC Master Catalog

Two Line Element Set (TLE):
1 23087U 94023A   15146.51874909  .00000335  00000-0  20204-3 0  9990
2 23087 071.0522 131.9916 0010729 280.7732 217.6652 14.13673946 88129

Source of the keplerian elements: AFSPC

N2YO: 309